Volver al catálogo

COSMOS 1933

ActivoMilitarPO
NORAD 18958·PAYLOAD·🇷🇺 Russia

Lanzado Mar 15, 1988 desde Plesetsk Cosmodrome

Loading…

Próximos Pases (próximas 24 horas)

TLE

ActualizadoSource: Space-Track

Época: Sep 13, 2026, 21:42 UTC

1 18958U 88020A   26256.90428110  .00002723  00000-0  12799-3 0  9990
2 18958  82.5101  64.5287 0002553 261.9591  98.1353 15.19196250 78799

Sigue COSMOS 1933 en tiempo real con AllMySat

Download on the App Store